AirNav  
 
 1457 users online  

DC03 US Park Police Eagle's Nest Heliport
Washington, District of Columbia, USA

GOING TO WASHINGTON?


FAA INFORMATION EFFECTIVE 25 FEBRUARY 2021

Location

FAA Identifier: DC03
Lat/Long: 38-51-59.4040N 076-59-33.9120W
38-51.990067N 076-59.565200W
38.8665011,-76.9927533
(estimated)
Elevation: 14 ft. / 4 m (estimated)
Variation: 09W (1985)
Time zone: UTC -5 (UTC -4 during Daylight Saving Time)
Zip code: 20020

Heliport Operations

Heliport use: Private use. Permission required prior to landing
Activation date: 03/1973
Control tower: no
ARTCC: WASHINGTON CENTER
FSS: LEESBURG FLIGHT SERVICE STATION
Attendance: 0600-0200
Wind indicator: yes
Segmented circle: no
Lights: SS-SR

Heliport Communications

WX ASOS at DCA (2.3 nm SW): 132.65 (703-418-1177)
WX AWOS-3 at CGS (8 nm NE): 121.225 (301-864-5497)
WX AWOS-3 at FME (17 nm NE): 123.925
WX AWOS-3PT at GAI (20 nm NW): 128.275 (301-977-2971)

Nearby radio navigation aids

VOR radial/distance  VOR name  Freq  Var
DCAr087/2.1WASHINGTON VOR/DME111.0009W
ADWr311/6.9ANDREWS VORTAC113.1010W
OTTr320/15.1NOTTINGHAM VORTAC113.7010W
AMLr108/22.5ARMEL VOR/DME113.5008W
BALr231/23.9BALTIMORE VORTAC115.1011W
BRVr037/36.0BROOKE VORTAC114.5009W
FDKr159/(37.3)FREDERICK VOR109.0008W
EMIr189/37.7WESTMINSTER VORTAC117.9008W

 
NDB name  Hdg/Dist  Freq  Var  ID
OXONN026/6.233211WDCA -.. -.-. .-
GEORGETOWN131/7.232309WGTN --. - -.
DAVEE033/13.522309WDAA -.. .- .-
ELLICOTT213/27.237111WFND ..-. -. -..

Heliport Services

Runway Information

Helipad H2

Dimensions: 70 x 70 ft. / 21 x 21 m
Surface: asphalt/concrete
Runway edge lights: PERI
Traffic pattern: leftleft

Helipad H1

Dimensions: 40 x 40 ft. / 12 x 12 m
Surface: asphalt/concrete
Runway edge lights: PERI
Latitude: 38-51.990067N
Longitude: 076-59.565200W
Elevation: 14.0 ft.
Traffic pattern: leftleft

Heliport Ownership and Management from official FAA records

Ownership: Publicly-owned
Owner: DEPT.INTERIOR NPS NCR USPP
1100 OHIO DR, SW
WASHINGTON, DC 20242
Phone 202-619-7105
Manager: LT. JOHN DILLON
1100 OHIO DR, SW
WASHINGTON, DC 20242
Phone 202-690-0738

Heliport Operational Statistics

Aircraft based on the field: 3
Helicopters: 3
    

Additional Remarks

BLUE TAXI LGTS BTWN HELIPADS
FOR CD CTC POTOMAC APCH AT 866-599-3874.

Instrument Procedures

There are no published instrument procedures at DC03.

Some nearby airports with instrument procedures:

KDCA - Ronald Reagan Washington NTL Airport (2 nm SW)
KADW - Joint Base Andrews (7 nm SE)
KVKX - Potomac Airfield (7 nm S)
KCGS - College Park Airport (8 nm NE)
W32 - Washington Executive Airport/Hyde Field (8 nm S)
W00 - Freeway Airport (11 nm NE)
KDAA - Davison Army Airfield (13 nm SW)
2W5 - Maryland Airport (17 nm S)
KFME - Tipton Airport (17 nm NE)
KGAI - Montgomery County Airpark (20 nm NW)
 
Loc | Ops | Rwys | IFR | FBO | Links
Com | Nav | Svcs | Stats | Notes
Area around DC03 (US Park Police Eagle's Nest Heliport)
 
Road maps at: MapQuest Bing Google
 
Aerial photo
No photo
 
Sectional chart

 
Airport distance calculator
Flying to US Park Police Eagle's Nest Heliport? Find the distance to fly.

From to DC03

Sunrise and sunset
Times for 08-Mar-2021
 Local
(UTC-5)
 Zulu
(UTC)
Morning civil twilight06:0511:05
Sunrise06:3111:31
Sunset18:0723:07
Evening civil twilight18:3323:33

Current date and time
Zulu (UTC)  08-Mar-2021 20:22:43
Local (UTC-5)  08-Mar-2021 15:22:43
 
METAR
KDCA 
2nm SW 
081952Z 02005KT 10SM FEW250 12/M13 A3044 RMK AO2 SLP308 T01171133
KADW 
7nm SE 
081956Z AUTO 29005KT 10SM CLR 10/M14 A3042 RMK AO2 SLP311 T01021138 $
KCGS 
8nm NE 
081955Z AUTO 28004KT 10SM CLR 10/M19 A3043 RMK AO1 T01011193
KDAA 
12nm SW 
081956Z AUTO 25004KT 10SM CLR 12/M14 A3043 RMK AO2 SLP308 T01231145 $
KFME 
17nm NE 
081955Z AUTO 29006KT 10SM CLR 11/M12 A3045 RMK AO1
KGAI 
20nm NW 
081956Z AUTO VRB04KT 10SM CLR 10/M13 A3042 RMK AO2 SLP321 T01001133
TAF
KDCA 
2nm SW 
081726Z 0818/0924 34009G15KT P6SM FEW250 FM082100 26006KT P6SM FEW250 FM082300 21004KT P6SM FEW250
KADW 
7nm SE 
081700Z 0817/0923 27009KT 9999 FEW250 QNH3050INS BECMG 0823/0824 VRB04KT 9999 FEW080 QNH3040INS TX10/0820Z TN01/0910Z
KDAA 
12nm SW 
081300Z 0813/0919 VRB06KT 9999 SKC QNH3040INS BECMG 0814/0815 32009KT 9999 FEW250 QNH3036INS BECMG 0820/0821 27009KT 9999 FEW250 QNH303034INS BECMG 0822/0823 VRB05KT 9999 SCT250 QNH3032INS TX13/0820Z TN01/0911Z
NOTAMs
Click for the latest NOTAMs
NOTAMs are issued by the DoD/FAA and will open in a separate window not controlled by AirNav.

 

 
 

Would you like to see your business listed on this page?

 If your business provides an interesting product or service to pilots, flight crews, aircraft, or users of the US Park Police Eagle's Nest Heliport, you should consider listing it here.  To start the listing process, click on the button below
 
Add a business
 

Other Pages about US Park Police Eagle's Nest Heliport

Update a link
 
Copyright © AirNav, LLC. All rights reserved. Privacy Policy  Contact